[[{"header":{"parameterUnit":"m.s-1","parameterCategory":1,"la1":30.2991,"la2":30.254,"lo1":-89.0895,"lo2":-89.0444,"dy":0.0017,"dx":0.0017,"nx":28,"ny":28,"refTime":"2024-04-04T09:00:00:Z","depth":0,"parameterNumber":2,"parameterNumberName":"U-component_of_WINDS"},"data":[0,0,0,0,0,0,0,0,0,0,0,0,0,0,0,0,0,0,0,0,0,0,0,0,0,0,0,0,0,0,0,0,0,0,0,0,0,0,0,0,0,0,0,0,0,0,0,0,0,0,0,0,0,0,0,0,0,0,0.5867,0.5867,0,0.5943,0.5944,0.5945,0.5982,0.5982,0.5982,0.5982,0.6061,0.6063,0.6065,0,0,0,0,0,0,0,0,0,0,0,0,0,0.5755,0.5757,0.5867,0.5868,0.5868,0.5943,0.5944,0.5945,0.5982,0.5982,0.5982,0.5982,0.606,0.6063,0.6065,0,0,0,0,0,0,0,0,0,0,0,0,0,0.5815,0.5757,0.5866,0.5896,0.5899,0.5942,0.5944,0.5945,0.5982,0.5982,0.5982,0.5982,0.6059,0.6063,0.6066,0.6085,0,0,0.6075,0.6077,0,0,0,0,0,0,0,0,0.5811,0.5819,0.5891,0.5894,0.5898,0.5953,0.5933,0.5992,0.5982,0.5951,0.5982,0.5982,0.6025,0.6031,0.6045,0.6089,0.6092,0.6076,0.6077,0.6079,0.608,0,0,0,0,0,0,0,0.5807,0.5816,0.5897,0.5892,0.5896,0.5906,0.5914,0.5945,0.5987,0.5953,0.5956,0.5965,0.6027,0.6042,0.6048,0.6094,0.6075,0.6078,0.608,0.6081,0.6159,0.6159,0,0,0,0,0,0,0.5798,0.5812,0.5894,0.5899,0.5854,0.5908,0.5917,0.5935,0.5987,0.5995,0.5965,0.5966,0.6037,0.6044,0.605,0.6078,0.6079,0.6082,0.6084,0.6159,0.6159,0.6159,0,0,0,0,0,0,0.5795,0.5805,0.5891,0.5856,0.5868,0.591,0.593,0.5937,0.5952,0.5995,0.6003,0.5972,0.6037,0.6046,0.6077,0.6081,0.6083,0.6086,0.6158,0.6159,0.6159,0.6131,0,0,0,0,0,0,0.5792,0.5804,0.5811,0.5856,0.587,0.5915,0.593,0.5938,0.5957,0.596,0.6005,0.6012,0.6038,0.6072,0.608,0.6085,0.6089,0.6158,0.6159,0.6159,0.6132,0.6131,0.6129,0,0,0,0,0,0.5788,0.58,0.5811,0.5821,0.588,0.5916,0.5923,0.5953,0.5957,0.5965,0.5994,0.6011,0.6079,0.6075,0.6084,0.609,0.6158,0.6158,0.6159,0.6133,0.6131,0.6129,0,0,0,0,0,0,0.5754,0.5806,0.5819,0.5846,0.5876,0.5922,0.5933,0.595,0.5979,0.598,0.6016,0.6025,0.6053,0.6075,0.6069,0.6113,0.612,0.6123,0.6097,0.6096,0.6095,0.6089,0.6091,0,0,0,0,0,0.575,0.5774,0.5819,0.5838,0.5853,0.589,0.5907,0.5927,0.5959,0.5972,0.6002,0.6034,0.6063,0.6081,0.6109,0.6136,0.6147,0.6145,0.6144,0.6142,0.6144,0.6161,0.6161,0.616,0.616,0.616,0,0,0.5741,0.5773,0.5786,0.5833,0.5858,0.5883,0.59,0.5926,0.5945,0.5976,0.6007,0.603,0.6068,0.6097,0.6111,0.6116,0.6147,0.6143,0.6141,0.6144,0.6161,0.6161,0.6161,0.616,0.616,0.616,0,0,0.5738,0.5764,0.5784,0.5809,0.5848,0.5873,0.5878,0.5921,0.5938,0.5969,0.5994,0.6018,0.6066,0.6092,0.6111,0.612,0.6137,0.6129,0.6121,0.6137,0.6137,0.6137,0.6141,0.6142,0.613,0.613,0.613,0,0.5722,0.576,0.5792,0.5816,0.5836,0.5866,0.5887,0.591,0.5956,0.597,0.5975,0.6037,0.6065,0.61,0.6102,0.6117,0.6124,0.6123,0.6135,0.6135,0.6136,0.614,0.6141,0.6129,0.6129,0.6129,0.6129,0,0.5739,0.5765,0.5777,0.5821,0.5843,0.5865,0.5901,0.5919,0.5938,0.5963,0.5995,0.6029,0.6066,0.6076,0.6094,0.6115,0.6117,0.6128,0.6136,0.6134,0.6138,0.614,0.6127,0.6127,0.6128,0.6128,0,0,0.5715,0.5777,0.5781,0.5802,0.5848,0.5869,0.5893,0.5929,0.5945,0.5976,0.5998,0.6039,0.605,0.6072,0.6094,0.6108,0.6114,0.6118,0.6119,0.6116,0.6139,0.613,0.6131,0.6125,0.6126,0.6126,0.6136,0,0.5718,0.5763,0.5793,0.5826,0.5851,0.5881,0.5903,0.5934,0.5958,0.5983,0.6011,0.6039,0.6051,0.6065,0.608,0.6109,0.6119,0.6109,0.6147,0.6147,0.6136,0.6134,0.6124,0.6132,0.6138,0.6138,0.6138,0,0.5727,0.5758,0.5793,0.5838,0.585,0.5868,0.5905,0.5929,0.5965,0.5982,0.6007,0.603,0.6058,0.6064,0.6104,0.6097,0.6114,0.6131,0.6132,0.6136,0.6142,0.6138,0.6135,0.6136,0.6141,0.6141,0.6141,0,0.5705,0.5756,0.5785,0.5802,0.5854,0.5867,0.5889,0.5926,0.5946,0.5978,0.5991,0.6026,0.6045,0.6072,0.6104,0.6106,0.6141,0.615,0.6156,0.6155,0.6161,0.616,0.6161,0.6173,0.6173,0.6173,0.6173,0,0.5705,0.5726,0.5776,0.5793,0.5818,0.5853,0.5877,0.5902,0.5934,0.5957,0.5986,0.6007,0.6048,0.6075,0.61,0.613,0.6138,0.6153,0.6159,0.615,0.6148,0.6162,0.6162,0.6173,0.6173,0.6173,0.6173,0,0.5685,0.5719,0.5752,0.58,0.5813,0.5829,0.587,0.5888,0.5915,0.5944,0.5953,0.5995,0.6028,0.6063,0.6108,0.6125,0.6153,0.6162,0.6141,0.6144,0.6149,0.6148,0.6158,0.6161,0.6171,0.617,0.617,0,0.5682,0.5699,0.5749,0.5767,0.5789,0.5817,0.5838,0.5874,0.5895,0.5939,0.5952,0.5988,0.6018,0.6069,0.6104,0.6139,0.6149,0.615,0.6154,0.6145,0.6149,0.6148,0.615,0.6148,0.6148,0.6148,0.6148,0,0.5674,0.569,0.572,0.5756,0.578,0.581,0.5841,0.5854,0.5897,0.5919,0.5953,0.5977,0.6023,0.6058,0.6098,0.6122,0.6142,0.6146,0.615,0.614,0.6127,0.6134,0.6137,0.6146,0.6146,0.6146,0.6146,0.6146,0.5662,0.5679,0.5717,0.575,0.5777,0.5806,0.5826,0.5856,0.5885,0.5926,0.5946,0.598,0.6018,0.6073,0.6097,0.6125,0.613,0.6135,0.6136,0.6137,0.6135,0.6123,0.6132,0.6132,0.6132,0.6132,0.6132,0,0.5655,0.5682,0.5711,0.5754,0.578,0.5798,0.5833,0.5854,0.5884,0.5917,0.5947,0.5987,0.6022,0.606,0.6097,0.6112,0.6123,0.6121,0.612,0.6125,0.6127,0.6121,0.6112,0.6112,0.6112,0.6112,0.6112,0.6112,0.5654,0.5684,0.5706,0.575,0.5777,0.5811,0.583,0.5857,0.5884,0.5928,0.5957,0.5982,0.6018,0.6058,0.6091,0.6102,0.6114,0.6109,0.6122,0.6123,0.6125,0.6126,0.612,0.6112,0.6112,0.6118,0.6118,0.6118]},{"header":{"parameterUnit":"m.s-1","parameterCategory":1,"la1":30.2991,"la2":30.254,"lo1":-89.0895,"lo2":-89.0444,"dy":0.0017,"dx":0.0017,"nx":28,"ny":28,"refTime":"2024-04-04T09:00:00:Z","depth":0,"parameterNumber":3,"parameterNumberName":"V-component_of_WINDS"},"data":[0,0,0,0,0,0,0,0,0,0,0,0,0,0,0,0,0,0,0,0,0,0,0,0,0,0,0,0,0,0,0,0,0,0,0,0,0,0,0,0,0,0,0,0,0,0,0,0,0,0,0,0,0,0,0,0,0,0,1.9052,1.9052,0,1.9068,1.9068,1.9068,1.9059,1.9058,1.9058,1.9058,1.9072,1.9073,1.9073,0,0,0,0,0,0,0,0,0,0,0,0,0,1.9009,1.901,1.9052,1.9052,1.9052,1.9068,1.9068,1.9068,1.9059,1.9058,1.9058,1.9057,1.9072,1.9072,1.9073,0,0,0,0,0,0,0,0,0,0,0,0,0,1.9026,1.901,1.9052,1.9049,1.9049,1.9068,1.9068,1.9068,1.9059,1.9058,1.9058,1.9057,1.9071,1.9072,1.9074,1.9095,0,0,1.9077,1.9078,0,0,0,0,0,0,0,0,1.9025,1.9028,1.905,1.905,1.905,1.9061,1.9058,1.9077,1.9059,1.9055,1.9058,1.9057,1.9069,1.907,1.9074,1.9095,1.9096,1.9077,1.9078,1.9079,1.9079,0,0,0,0,0,0,0,1.9024,1.9027,1.9058,1.905,1.905,1.9046,1.9048,1.9062,1.9065,1.9056,1.9055,1.9057,1.9068,1.9073,1.9075,1.9096,1.9077,1.9078,1.9079,1.908,1.9132,1.9132,0,0,0,0,0,0,1.9024,1.9026,1.9058,1.9059,1.9036,1.9048,1.905,1.9058,1.9065,1.9066,1.9058,1.9057,1.9071,1.9073,1.9075,1.9098,1.9079,1.908,1.908,1.9131,1.9132,1.9133,0,0,0,0,0,0,1.9023,1.9027,1.9057,1.9042,1.9046,1.9049,1.9058,1.9059,1.9063,1.9067,1.9067,1.9062,1.9071,1.9073,1.9089,1.9098,1.908,1.9081,1.913,1.9131,1.9132,1.9145,0,0,0,0,0,0,1.9022,1.9026,1.9035,1.9043,1.9047,1.9072,1.9059,1.9059,1.9066,1.9065,1.9071,1.9072,1.9071,1.9087,1.909,1.91,1.9082,1.9129,1.9131,1.9132,1.9144,1.9146,1.9149,0,0,0,0,0,1.902,1.9039,1.9036,1.904,1.9058,1.9073,1.9075,1.9074,1.9067,1.9075,1.9077,1.9071,1.9097,1.9089,1.9092,1.9102,1.9129,1.913,1.9132,1.9143,1.9146,1.9149,0,0,0,0,0,0,1.9032,1.904,1.9037,1.9058,1.9065,1.9071,1.9082,1.9078,1.9086,1.9085,1.9083,1.9084,1.91,1.9103,1.9094,1.9121,1.9112,1.9114,1.9119,1.9122,1.9124,1.9122,1.9083,0,0,0,0,0,1.9037,1.9049,1.9055,1.9073,1.9077,1.9079,1.9085,1.9084,1.909,1.9093,1.9096,1.9101,1.911,1.9117,1.9125,1.9145,1.9145,1.9153,1.9155,1.9157,1.9158,1.9166,1.9169,1.9137,1.9137,1.9137,0,0,1.9048,1.9054,1.9061,1.9076,1.9081,1.9092,1.9081,1.9094,1.9101,1.9094,1.9109,1.9111,1.9117,1.9134,1.9142,1.9137,1.9167,1.9159,1.916,1.9161,1.9168,1.9171,1.9174,1.9138,1.9138,1.9138,0,0,1.9073,1.908,1.9094,1.9099,1.9107,1.9107,1.9111,1.9117,1.9119,1.9133,1.9128,1.9136,1.9153,1.9156,1.916,1.9184,1.9179,1.9187,1.9199,1.9207,1.9209,1.9211,1.9218,1.9221,1.9189,1.9189,1.9189,0,1.9085,1.9102,1.9102,1.9114,1.912,1.9114,1.9128,1.9132,1.9142,1.9145,1.914,1.9159,1.9163,1.9179,1.9185,1.9189,1.9192,1.9186,1.9209,1.9211,1.9213,1.9219,1.9222,1.919,1.919,1.919,1.919,0,1.9115,1.9127,1.9138,1.9147,1.9154,1.9167,1.9167,1.9174,1.9172,1.9172,1.9186,1.9191,1.9199,1.9203,1.9201,1.9219,1.9215,1.921,1.92,1.9217,1.9223,1.9225,1.9191,1.9191,1.9191,1.919,0,0,1.9148,1.9156,1.916,1.9163,1.917,1.9179,1.9191,1.9199,1.9204,1.921,1.9219,1.9232,1.9226,1.9231,1.9229,1.9236,1.9252,1.923,1.923,1.9232,1.9269,1.9272,1.9275,1.9249,1.925,1.925,1.9268,0,1.9172,1.9193,1.9192,1.9211,1.922,1.9215,1.9224,1.9229,1.923,1.9237,1.9238,1.9246,1.9239,1.9242,1.9248,1.9249,1.9259,1.9248,1.9255,1.9255,1.9252,1.9278,1.9281,1.9298,1.927,1.9271,1.9271,0,1.9202,1.9209,1.9229,1.9233,1.9236,1.9246,1.9252,1.926,1.9264,1.9264,1.9268,1.9265,1.9275,1.9266,1.9278,1.927,1.9273,1.9274,1.9274,1.9274,1.9263,1.9276,1.9304,1.9305,1.9275,1.9274,1.9274,0,1.9221,1.9236,1.9249,1.9252,1.9257,1.9263,1.9265,1.9269,1.9274,1.9279,1.9282,1.9288,1.9291,1.9296,1.9294,1.9288,1.9306,1.9297,1.9305,1.9305,1.9308,1.9308,1.9335,1.9313,1.9313,1.9313,1.9313,0,1.9246,1.9258,1.9257,1.9265,1.9277,1.9276,1.9288,1.9289,1.9292,1.9299,1.9295,1.9301,1.9299,1.9305,1.9303,1.9313,1.9315,1.9314,1.9313,1.9313,1.9313,1.9314,1.9312,1.9313,1.9313,1.9313,1.9313,0,1.9269,1.9269,1.9282,1.9286,1.9287,1.9296,1.9298,1.9305,1.9305,1.9314,1.9316,1.9316,1.9322,1.9321,1.9328,1.9327,1.9339,1.9337,1.9337,1.9336,1.9343,1.9342,1.9371,1.9373,1.9351,1.9352,1.9352,0,1.9284,1.9292,1.9297,1.9301,1.9304,1.9311,1.9315,1.9314,1.9318,1.9323,1.9328,1.9334,1.9339,1.935,1.935,1.9355,1.9353,1.9362,1.9353,1.9353,1.935,1.9349,1.9349,1.9363,1.9364,1.9364,1.9364,0,1.9309,1.9309,1.9315,1.9321,1.9327,1.9331,1.9336,1.9339,1.9338,1.9343,1.9349,1.9353,1.936,1.9366,1.937,1.9371,1.9367,1.9367,1.9369,1.9368,1.9367,1.9366,1.934,1.9366,1.9366,1.9366,1.9366,1.9366,1.9327,1.9334,1.9337,1.9344,1.9347,1.9351,1.9357,1.9357,1.9363,1.9369,1.9367,1.9374,1.9377,1.9382,1.9384,1.9389,1.9385,1.9388,1.9388,1.9389,1.9389,1.9368,1.939,1.939,1.939,1.939,1.939,0,1.9351,1.9353,1.9359,1.9365,1.937,1.9366,1.937,1.9374,1.938,1.9383,1.9388,1.9394,1.94,1.94,1.9404,1.9408,1.9406,1.9409,1.9408,1.9408,1.9393,1.939,1.941,1.941,1.941,1.941,1.941,1.941,1.9364,1.9374,1.9373,1.9385,1.9386,1.9393,1.9395,1.9398,1.94,1.9408,1.9412,1.9413,1.9414,1.9418,1.9422,1.9422,1.9423,1.9427,1.9426,1.9411,1.9409,1.9407,1.9404,1.9427,1.9427,1.944,1.944,1.944]}]]